Theta_e
320 320 320 321 321 321 321 322 322 322 322 322 322 322 322 322 322 322 322 322 322 322 322 322 323 323 323 324 324 324 322 304 304 302 301 302 310 328 331 335 338 334 324 304 304 305 301 299 303 300 302 300 301 301 301 304 300 303 296 289 288 288 287 289 291 290 292 294 294 294 292 294 294 294 296 296 296 293 293 294 295 295 294 298 295 296 297 300
320 320 320 320 321 321 321 321 322 322 322 322 322 322 322 322 322 322 322 322 322 322 322 322 322 323 323 323 324 324 313 304 303 300 303 314 328 335 338 337 336 331 317 305 302 298 301 299 299 298 302 301 301 302 302 302 304 297 289 289 291 287 292 293 291 292 292 295 292 292 290 293 296 295 296 296 294 293 296 296 292 297 298 299 297 297 299 300
319 319 319 320 320 321 321 321 321 322 322 322 322 322 321 321 322 322 322 322 322 322 322 322 322 323 323 323 323 322 309 302 297 298 303 327 332 337 340 335 332 330 309 305 301 300 301 298 298 299 297 297 296 300 299 300 303 296 294 291 288 291 291 291 292 293 293 294 295 294 294 292 293 295 294 296 295 292 294 298 295 293 298 299 299 297 298 299
320 319 319 320 320 321 321 321 321 322 322 322 322 321 321 321 322 322 322 322 322 322 321 322 322 322 322 323 323 315 304 298 295 299 303 324 338 336 338 336 331 314 303 303 300 299 298 298 296 299 298 298 293 298 300 299 299 296 295 291 293 291 293 295 292 294 293 292 293 293 291 292 294 292 294 292 295 298 298 299 299 300 299 300 298 297 297 298
319 320 319 320 320 321 321 321 321 321 321 321 321 321 321 322 322 322 322 322 322 322 322 322 322 322 322 323 321 306 300 292 293 299 301 325 336 339 338 335 325 303 303 299 301 298 298 299 298 295 296 294 294 296 297 297 298 296 297 297 295 291 293 296 294 293 293 290 291 291 292 297 293 291 292 294 294 297 301 299 299 300 301 300 299 295 296 297
319 320 320 320 320 321 321 321 321 321 321 321 321 321 321 322 322 321 322 322 322 322 323 322 322 322 323 322 310 300 297 288 301 302 330 336 337 339 337 330 319 302 303 299 299 298 302 300 299 298 293 294 293 294 292 296 298 295 295 295 296 294 296 294 293 292 292 292 291 293 296 293 294 295 290 294 296 301 304 303 300 299 299 299 297 295 295 297
319 319 319 319 320 321 322 321 320 320 321 321 321 321 322 322 321 322 321 322 322 322 322 322 322 322 322 316 301 299 297 294 295 302 331 336 338 337 330 326 316 303 302 301 300 301 295 296 297 292 290 292 291 292 292 294 297 296 294 291 295 296 296 296 298 289 290 291 295 293 293 295 294 296 292 293 298 301 303 303 300 299 296 293 296 296 297 298
319 319 319 319 320 320 321 320 320 320 321 321 321 321 321 321 321 321 321 322 322 322 322 322 322 322 321 299 302 293 295 296 301 307 333 335 328 326 317 306 304 303 303 301 300 296 295 296 297 292 294 294 292 293 293 294 295 295 294 292 294 294 295 295 293 293 293 293 295 293 295 297 297 296 294 297 300 300 301 301 300 298 296 294 294 297 297 297
320 319 319 319 319 319 319 320 320 320 320 320 321 321 321 321 321 321 321 321 322 321 322 322 321 321 319 298 294 294 293 299 298 303 319 316 311 310 310 309 304 305 299 297 299 298 300 296 295 295 294 291 292 293 291 293 292 294 297 294 292 293 294 293 292 291 292 294 293 294 295 297 296 294 294 298 300 302 301 299 299 296 295 296 296 297 297 296
320 320 319 319 320 318 319 319 320 320 320 320 320 321 321 321 321 321 321 321 321 321 321 321 321 319 302 298 295 292 298 299 304 311 309 310 307 307 303 304 303 301 302 297 296 298 300 294 300 297 293 294 292 293 289 292 292 292 292 292 294 295 292 292 293 291 291 290 290 294 295 296 291 293 294 299 298 298 296 296 295 293 295 296 296 296 295 295
321 319 319 320 320 318 319 319 320 320 320 320 320 321 321 321 321 321 321 321 321 321 321 320 321 310 300 297 294 293 300 306 305 307 307 307 307 306 304 303 301 302 299 296 299 300 297 295 296 296 299 294 292 291 291 292 291 290 291 291 292 291 291 290 288 290 290 294 289 295 294 294 290 291 294 299 295 293 294 296 296 294 295 296 296 295 296 294
321 319 320 321 319 318 319 319 319 320 320 320 320 321 321 321 320 320 320 320 320 320 320 321 318 315 297 296 294 296 300 303 305 305 306 305 302 302 300 302 300 302 300 297 297 298 296 296 297 295 292 294 291 290 290 290 293 291 290 291 290 290 293 291 292 292 290 291 288 292 290 290 290 290 296 298 297 295 294 295 295 295 296 296 296 295 295 296
320 320 320 320 318 318 318 319 319 320 320 320 320 320 320 320 320 320 320 320 320 320 320 318 315 311 296 292 295 300 300 302 304 302 302 301 301 300 298 299 300 298 300 297 297 297 296 297 297 296 294 294 288 291 291 292 290 291 288 288 290 289 289 292 291 286 289 290 288 291 286 287 291 294 297 298 296 293 291 293 294 295 295 295 295 295 296 296
321 321 320 319 318 318 319 319 320 320 320 320 320 320 320 320 320 320 321 320 321 320 321 321 309 300 293 291 293 301 302 302 303 304 302 302 301 302 301 301 299 299 300 299 297 296 296 296 298 295 294 294 292 295 293 287 287 291 287 287 287 286 286 289 289 288 289 288 289 290 287 289 293 295 296 296 293 292 293 294 294 294 295 295 295 295 296 297
321 320 319 319 318 318 319 319 319 320 320 320 320 320 320 319 320 320 321 319 320 320 320 315 305 295 291 295 298 300 314 302 302 302 303 302 299 301 301 300 299 298 298 300 300 297 296 297 297 296 293 293 293 293 288 282 281 283 286 283 281 285 285 289 289 288 290 288 287 290 286 289 293 295 295 293 290 291 291 293 293 293 295 296 296 296 296 298
320 320 320 320 318 318 319 319 319 319 320 320 320 319 319 319 319 321 320 319 320 321 317 303 301 294 292 293 300 317 303 301 300 300 300 302 301 301 299 297 299 298 297 297 297 297 294 297 294 291 293 292 292 286 282 286 284 281 286 284 285 282 284 285 290 286 289 288 288 291 289 286 288 291 292 290 290 290 291 293 294 294 294 295 296 297 297 298
321 320 320 320 320 319 319 319 319 319 319 319 319 319 318 319 319 320 320 319 317 316 306 297 300 296 293 298 302 297 296 299 301 301 302 301 301 299 300 298 297 296 296 296 297 298 294 296 291 292 287 289 285 284 284 281 283 285 283 283 283 284 284 283 287 291 286 289 287 288 286 289 292 293 294 295 294 293 293 294 294 295 296 296 296 297 297 297
321 321 320 320 319 320 319 320 319 319 319 319 319 317 312 318 317 316 313 313 312 309 303 303 299 296 296 298 295 296 299 298 301 299 299 300 299 298 296 295 293 294 294 294 296 295 294 293 289 290 286 287 287 285 283 282 285 284 282 282 283 281 282 286 284 286 289 287 286 285 286 287 290 292 292 294 294 292 293 294 295 295 295 296 296 296 297 297
322 321 321 321 320 319 319 319 319 319 319 319 318 314 319 320 304 302 305 302 298 296 294 295 293 291 291 297 295 295 300 302 300 301 301 301 299 296 296 294 295 297 291 291 292 292 290 290 288 288 286 286 287 288 287 289 288 285 285 284 282 283 284 282 286 288 288 289 289 287 287 289 290 291 292 293 294 292 292 294 294 294 295 295 295 296 297 298
322 321 321 321 320 319 319 319 319 319 319 315 305 298 297 294 291 292 293 298 297 295 295 294 297 293 296 297 297 298 301 300 301 297 301 301 301 298 295 294 293 290 290 290 290 290 291 286 286 285 289 289 289 289 291 288 286 285 284 283 284 284 285 286 288 289 288 286 287 288 289 289 290 291 292 293 294 294 293 292 293 294 295 296 296 296 297 298
322 322 322 321 320 320 320 319 319 319 319 307 297 293 293 290 290 289 290 293 296 296 295 296 298 298 300 296 295 299 299 296 297 299 302 304 298 299 296 294 291 290 289 287 289 290 290 286 285 289 291 290 289 289 287 287 286 286 285 283 285 284 285 288 289 290 287 286 283 284 288 288 289 291 292 294 293 293 293 293 293 294 295 296 296 296 297 297
321 322 322 321 320 320 320 320 319 319 315 298 297 293 291 291 294 294 293 292 294 294 293 296 295 295 298 298 297 296 298 294 294 299 302 302 298 296 293 291 286 290 286 287 287 287 286 285 289 290 290 284 285 286 285 286 286 285 284 284 282 284 286 288 289 289 287 284 285 286 285 287 289 291 293 293 293 294 295 294 295 295 295 296 296 296 296 297
321 321 321 321 320 320 320 320 319 316 300 300 296 293 294 297 294 294 297 291 290 295 294 294 293 293 295 295 295 298 295 294 294 295 299 300 294 294 290 290 288 286 286 287 288 283 283 284 289 290 288 288 286 286 286 284 284 283 283 282 283 286 284 283 283 282 283 285 286 287 285 287 290 291 292 293 293 293 294 295 295 295 295 295 295 295 295 296
321 321 321 321 321 320 320 320 318 308 299 297 296 298 297 295 295 296 295 290 290 293 294 294 294 292 291 294 296 298 294 292 293 293 297 298 294 291 292 290 287 286 289 287 288 287 289 286 286 287 287 287 286 285 285 284 286 284 285 284 285 285 286 284 284 284 284 286 282 284 286 287 286 286 288 287 287 289 292 293 293 294 296 295 296 295 296 295
321 320 320 321 319 320 319 319 305 302 298 300 298 299 295 295 296 296 295 291 288 289 295 294 293 293 294 298 295 296 291 290 290 292 295 296 291 291 290 288 288 287 287 285 286 285 285 289 285 284 283 285 285 284 285 286 283 283 283 286 287 287 286 285 284 283 281 282 282 283 283 284 285 285 285 286 288 292 293 292 292 292 294 293 292 293 295 295
321 320 320 319 319 319 320 309 305 302 303 301 302 299 294 294 296 295 293 286 285 288 293 291 297 295 298 294 292 291 293 290 292 293 300 296 296 293 290 289 289 286 285 284 286 284 287 286 287 288 284 283 284 284 286 285 284 283 285 285 287 287 284 283 283 283 278 278 284 281 280 281 283 287 286 287 288 291 293 291 291 292 292 292 293 294 294 294
320 320 319 319 319 319 313 306 306 304 305 304 299 297 294 296 295 298 290 285 284 290 289 294 295 293 297 293 292 293 288 287 295 293 294 297 296 296 289 286 286 285 285 285 284 284 285 283 284 284 284 284 283 283 285 287 284 282 282 282 284 283 283 283 283 284 281 280 282 283 282 279 283 284 287 289 288 290 290 291 291 291 291 291 291 292 292 293
319 320 319 320 320 318 314 309 308 306 307 305 301 298 298 297 297 297 291 280 281 292 289 290 293 298 297 293 290 290 289 288 289 293 293 294 294 292 290 284 287 285 285 285 283 285 285 284 284 283 284 282 284 286 284 287 285 282 283 283 284 283 283 281 283 281 279 280 279 280 284 279 279 284 284 284 285 286 288 288 289 290 290 291 291 292 292 292
315 318 318 318 320 319 315 312 310 308 305 301 300 301 300 299 296 293 286 279 291 287 300 291 300 294 290 294 290 286 289 288 287 289 291 293 295 291 288 286 284 283 283 287 286 284 284 285 284 286 284 284 285 282 284 287 285 284 283 283 281 281 281 282 280 282 278 277 278 279 282 277 282 286 284 283 284 285 285 287 290 290 290 291 291 293 294 293
312 315 317 318 318 316 313 312 310 308 303 302 300 299 301 299 296 290 285 280 294 289 291 293 291 288 288 288 288 287 290 287 287 287 290 291 292 292 290 287 285 286 286 284 284 285 286 288 285 285 286 287 283 282 284 288 285 283 283 283 281 280 279 278 278 277 276 274 280 281 282 283 279 284 283 284 286 283 285 287 291 292 293 293 292 292 292 292
312 312 314 317 315 315 314 310 312 305 304 303 302 302 303 301 292 286 282 288 293 292 290 290 288 289 289 287 285 287 287 284 289 288 289 290 290 288 287 289 286 280 279 280 283 285 286 285 286 285 287 284 284 284 284 285 284 285 282 281 282 281 277 273 269 274 273 271 281 280 282 282 276 281 283 281 282 283 287 289 290 291 292 292 291 291 291 290
311 310 313 316 317 318 312 311 309 305 304 302 304 303 300 289 290 284 285 296 288 289 287 287 286 284 284 285 285 284 286 287 284 287 285 284 284 286 285 285 283 280 278 278 281 280 282 284 284 285 288 289 286 286 282 284 286 285 283 284 279 273 273 270 269 270 271 276 277 279 281 279 280 287 282 286 290 293 291 289 290 290 290 290 290 290 289 289
310 311 313 315 316 315 315 310 307 306 305 305 303 300 294 286 282 287 286 288 288 291 289 289 287 287 285 287 286 284 286 286 286 286 284 284 284 285 283 286 284 287 283 280 278 280 283 281 282 285 286 287 286 284 280 282 283 283 283 280 275 273 271 267 267 266 270 276 278 279 280 278 284 286 288 291 294 293 290 289 288 289 290 290 288 288 289 289
310 310 311 314 317 317 311 308 308 307 307 307 304 297 291 285 284 293 287 289 292 289 289 288 287 285 286 286 284 283 287 285 286 286 286 283 283 281 283 283 283 286 285 279 282 279 276 282 283 284 285 286 288 289 289 286 282 284 283 285 283 278 273 273 272 277 279 280 277 278 277 275 276 284 285 287 289 288 287 287 287 286 286 285 286 288 288 288
309 309 311 315 315 316 309 310 308 310 311 307 299 294 286 285 289 285 284 286 287 289 291 289 288 286 287 286 284 284 288 289 284 283 284 284 283 280 282 283 284 285 283 284 284 278 283 284 284 286 285 286 286 288 283 282 282 282 280 281 277 278 282 281 282 280 281 281 276 275 279 280 285 288 291 293 293 290 286 287 286 287 286 287 288 287 287 287
309 310 315 313 312 315 311 310 309 312 311 304 296 288 286 288 284 286 288 290 290 290 289 288 285 287 282 281 282 285 289 287 287 285 283 283 282 282 282 282 284 288 287 285 285 282 283 278 283 284 283 285 286 285 286 285 279 282 282 279 283 285 285 281 280 282 279 278 278 284 281 284 288 292 296 295 289 286 285 284 286 286 287 286 286 286 286 286
301 306 308 312 312 314 312 310 311 311 308 302 294 287 293 292 293 287 294 292 291 290 288 288 286 287 284 282 284 282 286 288 285 284 283 284 284 284 282 283 284 287 291 291 284 288 285 287 286 283 284 285 282 285 286 284 285 283 278 283 285 286 285 282 275 274 277 276 278 285 281 284 284 281 287 288 291 289 285 283 284 285 285 284 284 284 285 285
300 303 308 309 313 314 312 311 311 309 303 298 292 294 293 292 293 295 291 291 292 290 288 287 290 291 285 286 286 284 286 286 284 285 281 284 285 286 282 284 286 288 290 289 286 285 287 281 287 285 286 285 283 287 286 286 286 285 283 285 284 279 277 280 275 272 275 275 277 280 284 284 285 285 290 290 288 285 284 283 282 282 282 282 283 284 284 284
300 303 298 303 307 313 311 312 311 305 299 293 291 291 297 297 293 293 293 294 293 291 290 290 291 291 290 287 285 286 286 284 286 283 285 286 284 288 286 288 290 287 286 288 286 284 285 281 283 287 287 285 284 285 280 283 285 285 286 283 284 283 281 277 279 275 279 276 278 277 283 279 287 287 288 286 283 283 283 282 281 281 281 282 282 282 283 283
300 299 295 306 310 312 312 312 305 301 296 289 292 293 293 291 295 294 292 296 295 293 291 290 290 290 290 290 287 287 284 286 287 286 287 288 289 294 291 292 288 287 286 289 287 287 283 286 278 286 284 287 282 285 285 286 281 282 282 280 282 280 282 283 280 280 280 278 278 277 275 281 285 286 286 282 282 283 283 281 281 281 281 281 281 281 282 282
301 296 296 309 311 312 312 307 300 295 293 294 296 294 294 294 293 294 295 296 296 297 294 290 288 287 287 287 287 288 287 287 287 289 289 288 288 285 287 290 290 289 288 286 286 283 281 283 282 284 283 283 286 286 286 288 287 283 285 282 285 281 278 279 277 286 281 280 276 277 275 282 287 289 284 283 282 282 282 282 281 281 281 281 281 281 281 281
298 285 293 309 311 312 306 296 296 296 293 292 292 294 293 300 293 294 293 294 295 295 296 293 289 289 289 291 291 288 288 287 287 286 285 289 288 291 290 291 292 289 289 285 284 285 287 282 282 281 284 285 288 290 286 286 286 284 286 283 285 284 284 281 276 280 283 281 283 281 279 280 289 286 284 283 282 282 282 282 281 280 281 280 281 281 281 281
295 290 304 307 311 310 303 295 297 294 292 295 298 297 295 294 291 291 292 292 291 294 291 292 292 292 291 293 290 289 289 286 286 285 284 284 288 294 289 293 290 291 291 284 287 286 291 277 278 283 285 286 288 289 288 285 286 285 285 283 283 282 285 284 284 283 279 281 281 280 278 281 288 285 284 282 282 282 282 281 280 280 280 280 280 281 280 281
296 295 299 308 310 307 299 288 288 290 293 296 296 295 297 293 291 290 291 291 293 291 291 290 290 294 291 290 289 289 288 285 287 289 287 287 286 288 287 289 292 290 291 286 287 287 282 283 285 280 281 282 283 285 285 284 285 282 282 283 284 285 284 284 282 279 278 281 282 279 274 281 288 284 284 283 282 281 280 281 280 279 280 280 280 280 280 280
291 291 295 300 307 304 294 297 292 290 292 292 293 292 294 294 294 295 294 291 293 292 291 289 292 289 289 288 287 287 288 289 286 288 287 285 286 286 286 288 290 288 290 290 293 289 285 283 284 278 275 273 273 274 274 277 280 281 282 282 284 285 285 284 279 280 277 281 283 279 279 285 289 287 284 281 281 281 281 280 281 280 279 279 280 280 280 280
286 276 282 289 296 298 298 299 296 292 287 287 288 291 293 290 291 289 293 291 295 290 292 289 286 289 287 287 286 288 288 288 286 283 284 283 284 286 286 285 287 287 289 292 286 285 282 284 284 283 281 279 281 282 284 285 282 282 282 284 284 285 286 285 284 281 278 280 279 281 282 283 285 287 279 279 278 279 280 280 279 279 279 280 280 280 280 279
282 278 280 278 286 289 291 296 294 295 289 293 286 290 287 288 288 288 291 287 287 291 288 290 287 288 286 287 286 287 288 287 286 286 286 286 285 286 284 284 283 285 291 288 288 281 282 283 285 285 284 285 286 286 287 287 283 284 283 283 284 283 284 283 281 279 285 281 276 284 285 283 284 283 279 277 278 278 280 279 279 279 279 279 279 279 281 279
278 278 281 285 284 277 283 287 292 291 293 293 288 289 287 285 285 284 287 289 287 289 286 284 287 290 289 287 286 283 286 285 283 283 285 283 283 280 285 283 282 285 286 283 284 285 282 282 285 285 283 285 285 284 285 284 284 284 283 283 282 284 283 281 282 284 283 279 277 283 284 282 283 279 279 277 277 277 279 280 280 280 279 279 279 278 278 278
282 281 281 284 280 282 281 283 285 288 289 291 288 290 287 287 285 285 284 283 286 285 288 283 285 286 287 286 285 285 285 280 278 282 280 278 280 278 278 282 282 280 280 279 282 283 283 278 284 284 282 282 283 283 282 281 282 283 283 284 285 284 283 283 282 283 282 281 283 282 282 281 282 277 278 279 279 278 277 280 280 279 278 278 278 277 277 277
279 282 279 283 282 282 283 283 283 284 284 288 285 287 287 285 284 285 285 285 283 284 287 286 287 285 283 282 285 284 285 286 284 282 280 281 279 280 277 281 280 282 281 280 282 281 284 277 284 279 279 279 282 283 283 282 281 279 281 282 282 282 281 281 281 281 281 279 281 281 280 279 278 276 277 281 280 279 279 277 278 278 279 279 278 277 277 277
284 286 287 282 281 280 280 280 281 283 283 285 284 285 287 286 285 285 283 286 285 284 283 282 281 281 282 282 283 285 282 280 281 279 280 281 280 282 280 279 282 277 279 278 280 278 281 275 281 277 275 275 279 279 279 279 277 276 276 277 277 278 276 278 278 280 279 277 279 278 274 275 275 276 278 279 279 277 277 277 277 278 280 280 279 277 277 277
282 281 285 284 277 283 277 279 277 280 278 282 284 284 284 282 281 282 282 286 284 287 284 284 284 283 282 284 283 284 284 284 283 285 285 284 285 283 284 282 282 279 276 276 281 278 279 276 275 274 274 273 279 279 276 275 275 272 274 277 279 279 280 280 281 281 280 280 277 274 275 272 273 277 274 276 279 278 278 278 278 278 280 279 278 277 277 277
Wind_Speed
12 12 12 13 13 13 13 13 14 14 13 13 13 13 13 13 12 12 12 11 12 12 12 12 12 13 13 13 12 11 9 1 0 0 0 8 4 5 2 5 11 13 10 7 5 6 1 2 3 4 2 3 2 1 2 1 1 1 2 3 2 5 3 7 6 10 2 1 3 2 2 2 7 3 1 1 1 2 5 5 6 6 10 9 4 0 1 2
12 12 12 12 13 13 13 13 14 14 14 14 13 13 13 13 13 12 13 12 12 12 12 11 12 12 13 12 11 10 4 0 2 2 12 3 2 5 4 9 11 11 9 5 7 4 6 0 0 3 3 1 2 0 1 1 0 3 2 2 6 5 7 10 7 8 1 9 3 2 2 2 8 1 2 3 4 3 10 8 4 9 12 10 9 8 3 5
11 12 12 11 12 12 13 13 13 13 14 14 14 13 14 14 13 13 13 12 12 12 12 12 12 13 12 12 11 7 2 2 0 2 3 1 3 6 7 10 12 8 4 4 3 7 2 5 5 4 2 2 6 1 2 0 1 2 4 4 7 9 6 7 5 7 11 3 5 6 3 1 4 0 1 2 8 3 9 14 3 8 14 10 9 5 8 6
11 12 12 12 11 12 12 13 13 13 13 14 14 14 14 15 14 14 14 13 13 12 12 12 12 12 12 12 11 2 1 1 2 2 0 2 3 8 8 11 10 8 9 8 6 6 5 9 6 3 1 1 3 1 1 2 1 1 2 5 5 5 2 6 11 11 9 1 3 3 3 6 5 6 1 1 7 13 14 13 14 16 13 12 7 7 6 8
11 12 12 12 12 12 13 13 13 13 13 13 13 14 14 14 15 14 14 14 14 13 12 12 12 11 12 12 9 0 1 5 3 1 1 4 3 8 9 11 9 4 5 10 11 7 6 5 3 3 2 2 1 1 3 1 2 3 9 5 5 2 3 5 8 7 4 2 3 3 5 9 1 1 4 4 8 14 12 6 10 13 10 9 9 6 6 8
11 11 12 11 12 13 13 13 13 13 13 13 13 14 15 14 14 14 14 14 14 14 13 12 12 12 12 11 1 1 4 3 1 1 3 5 7 8 10 10 9 10 11 5 4 5 7 2 4 1 0 1 4 5 2 1 2 5 2 6 7 7 5 2 2 3 4 1 2 4 4 4 1 8 5 9 15 18 18 12 7 9 8 8 2 3 7 9
10 11 11 11 12 13 13 13 13 14 13 13 14 14 15 15 14 14 14 14 14 14 13 12 12 12 13 2 0 1 3 6 2 7 6 7 8 10 11 10 10 8 7 6 5 3 1 4 2 2 4 0 3 4 4 2 1 1 7 1 7 4 11 6 2 6 3 4 6 4 6 10 2 13 1 9 17 20 21 14 8 10 5 3 6 8 11 12
9 10 11 11 13 13 13 13 13 14 13 13 14 14 15 15 15 15 15 15 14 14 13 12 11 10 9 1 1 2 1 5 10 1 7 8 9 10 10 5 6 6 6 8 8 4 5 6 6 3 1 5 3 6 1 1 1 4 7 4 6 1 7 4 4 4 5 9 8 4 8 19 7 7 6 18 19 16 18 15 13 11 8 7 9 15 13 11
5 10 11 11 12 13 13 13 14 14 13 14 14 14 15 15 15 16 15 15 15 13 12 11 10 9 4 1 2 1 5 6 4 5 6 8 7 8 9 4 2 7 4 4 4 8 6 5 2 7 5 1 2 2 2 2 8 8 12 1 4 5 6 4 5 5 8 6 5 1 14 18 9 5 14 26 24 13 11 13 12 6 9 12 13 15 13 12
4 8 11 11 12 13 13 13 14 14 14 14 14 15 15 16 16 16 17 15 14 13 11 9 9 9 3 1 1 3 6 2 4 4 6 8 7 8 7 3 7 8 7 3 6 7 6 6 9 6 4 1 5 4 2 6 6 4 2 4 6 9 6 3 6 4 5 5 7 8 13 15 2 4 15 9 8 7 6 10 7 4 11 13 11 11 10 10
6 11 11 11 12 13 13 13 14 15 15 15 15 15 16 16 17 17 16 16 14 12 10 7 5 5 0 2 3 10 2 4 1 3 6 7 9 7 3 4 5 5 5 2 6 8 4 9 4 5 1 5 4 3 3 5 2 2 1 5 9 7 6 8 6 11 2 8 10 10 13 11 3 1 17 22 2 1 4 11 11 7 12 13 13 10 8 8
6 11 11 11 13 13 13 14 15 16 16 16 16 16 16 17 18 17 17 15 13 10 8 7 2 0 0 2 8 9 4 4 3 3 5 5 4 0 4 6 5 6 8 5 6 3 5 6 7 4 2 3 2 1 3 3 1 0 2 5 8 7 13 3 6 6 8 6 7 8 2 10 3 9 21 15 7 6 6 11 14 13 12 12 11 11 10 12
6 9 12 10 13 13 14 15 16 17 17 17 17 17 18 18 19 18 16 13 8 6 3 6 5 1 1 5 10 4 1 3 6 7 5 6 6 4 3 1 3 2 4 4 4 5 4 8 4 4 2 3 2 2 1 3 0 1 1 1 9 6 10 7 3 3 6 3 9 6 7 6 12 16 18 14 3 3 5 11 11 12 12 9 9 11 12 12
7 7 9 10 11 13 14 15 16 18 18 19 19 19 19 19 17 14 11 9 7 6 3 4 3 2 1 6 6 2 2 4 6 6 2 1 5 2 4 4 4 3 0 2 0 1 5 1 5 2 1 3 3 1 2 4 2 4 2 2 5 6 9 3 1 1 1 3 10 1 8 9 16 15 13 8 0 1 8 11 10 11 13 11 8 9 12 15
5 5 7 8 10 12 13 15 17 19 19 19 20 19 20 17 12 10 7 3 3 4 5 7 2 2 1 8 3 2 7 1 3 2 3 5 4 2 1 3 4 4 3 3 2 2 4 6 4 1 2 0 0 3 4 2 4 1 4 5 2 6 6 9 3 5 9 1 2 5 8 13 14 15 8 5 3 1 7 11 10 11 14 16 12 11 14 17
5 4 8 9 12 12 11 12 16 19 20 20 20 19 14 8 8 7 6 3 3 8 4 1 1 1 1 7 1 6 1 2 2 0 0 2 5 2 3 4 2 4 3 4 3 4 3 4 2 3 0 1 1 2 3 5 5 3 5 6 8 3 6 9 7 3 7 2 2 11 11 4 10 12 11 5 6 4 9 16 15 15 17 17 15 13 13 15
4 4 7 8 8 12 12 13 14 18 20 21 20 15 8 1 6 8 7 8 5 4 1 1 1 1 1 3 2 2 4 1 2 1 2 2 2 8 6 4 2 4 6 5 3 4 4 2 3 1 3 1 2 5 2 2 9 6 1 7 4 6 3 6 8 7 1 7 5 7 6 12 15 11 14 14 10 13 17 20 17 15 15 16 15 15 15 15
4 5 7 5 12 11 13 14 16 17 20 21 20 13 5 3 3 4 6 6 2 2 1 1 1 1 9 1 5 3 0 1 2 3 2 2 4 6 5 3 1 5 4 3 3 2 3 1 4 5 2 1 2 2 2 11 9 7 4 5 7 3 6 11 3 4 9 5 6 1 11 15 17 14 16 16 16 8 16 20 17 16 16 14 13 15 18 16
6 5 4 5 10 11 12 13 15 17 19 23 16 7 4 1 2 1 3 1 1 1 1 2 3 4 4 1 4 3 1 1 3 2 1 4 2 3 4 4 5 7 1 2 1 2 2 4 4 1 7 5 6 10 11 17 9 7 3 6 5 9 4 6 9 9 7 16 14 9 15 16 14 15 14 14 14 12 15 17 16 15 15 14 14 15 17 17
6 5 3 4 7 9 12 13 15 17 18 13 8 3 1 4 3 1 4 1 2 4 1 3 5 3 7 6 1 1 1 1 1 5 1 2 5 4 4 2 3 5 5 4 1 2 1 5 6 8 13 9 8 14 16 3 4 0 2 4 9 9 10 8 11 11 4 8 10 17 18 14 13 13 14 16 16 16 18 11 13 17 17 17 15 16 18 17
6 5 5 3 4 6 10 12 14 16 17 6 4 3 2 1 2 4 5 9 7 5 7 7 11 8 11 1 1 0 0 1 3 0 1 1 0 7 2 2 1 2 1 2 6 0 4 6 9 14 13 8 6 3 3 6 5 7 8 6 11 2 15 9 12 6 1 2 2 6 15 15 17 16 17 17 15 20 18 12 13 18 19 17 18 13 11 14
6 6 5 5 4 5 8 11 13 15 8 1 5 3 1 1 1 2 1 7 5 8 8 13 1 5 5 6 2 3 4 2 1 1 0 1 1 3 2 4 3 7 1 3 2 2 3 9 13 15 3 5 3 1 1 5 7 5 7 4 6 9 12 6 11 7 4 1 9 9 13 10 19 22 23 17 15 15 16 14 16 17 20 18 8 6 12 12
6 7 6 6 5 4 6 9 10 9 4 4 3 2 0 0 0 1 1 1 7 3 3 7 5 9 10 1 0 5 5 7 9 2 5 3 2 3 4 4 4 1 1 4 9 3 2 6 17 7 2 4 2 1 1 4 2 5 5 5 11 7 4 8 4 2 3 1 11 12 19 13 19 18 15 15 11 13 12 16 17 18 13 13 14 11 12 16
8 7 8 8 5 4 5 8 7 2 3 2 3 0 1 1 3 1 0 3 5 7 6 3 2 1 5 2 3 6 6 3 2 4 3 4 7 3 3 5 3 2 8 7 7 10 11 3 1 3 6 6 6 5 5 7 10 2 6 7 12 11 10 8 6 7 7 6 1 9 12 7 4 3 3 5 4 4 13 16 16 4 3 10 11 12 10 9
8 9 8 7 6 4 6 5 3 0 2 1 0 1 2 2 2 3 1 5 1 5 1 1 2 1 2 1 1 4 1 0 4 0 2 3 4 3 2 1 3 7 6 4 3 4 10 9 4 5 3 3 4 4 12 8 5 3 7 15 15 11 10 9 5 7 6 6 4 8 14 2 1 1 2 9 6 8 13 10 7 5 2 3 7 10 10 6
6 6 7 6 5 5 5 1 0 2 0 1 1 2 2 2 1 1 1 2 7 3 3 2 1 0 0 1 3 2 5 3 1 1 2 1 2 1 2 0 2 4 3 5 6 4 8 2 5 6 4 4 5 6 3 7 7 1 9 7 13 11 7 6 8 4 3 1 3 5 2 15 3 5 3 6 5 16 15 5 6 7 8 5 8 5 7 11
5 5 5 5 6 4 0 1 1 1 3 1 1 2 2 1 1 0 2 2 4 3 2 1 1 0 1 0 0 1 3 2 1 2 1 3 0 0 2 4 1 1 2 2 3 5 2 2 5 3 4 5 4 7 5 11 5 5 3 1 1 1 4 4 1 3 6 2 5 1 4 4 18 3 7 8 11 12 10 11 10 9 6 8 7 5 5 9
4 4 4 5 8 7 1 2 0 1 2 0 4 3 2 2 2 0 1 4 2 1 1 1 0 1 1 1 5 1 1 1 1 0 0 2 1 2 1 4 6 6 3 3 7 3 4 2 3 3 2 3 8 7 3 9 8 5 1 5 1 2 4 3 2 3 3 5 8 1 0 4 8 2 2 3 4 6 11 9 9 7 7 7 7 8 7 6
11 6 4 5 8 6 2 2 3 2 1 4 4 4 3 2 0 1 1 2 1 2 1 1 3 1 1 0 3 1 0 1 1 1 3 1 2 1 1 4 3 3 1 6 9 2 2 3 8 9 7 8 7 3 9 11 5 3 4 5 6 5 5 1 2 1 4 3 9 6 6 3 19 1 6 3 1 5 7 5 6 8 7 9 10 11 8 7
11 9 7 4 6 3 1 2 3 1 6 5 5 4 3 1 0 0 1 5 2 2 1 1 1 1 1 3 1 2 1 1 1 1 3 2 2 2 1 2 2 1 3 2 3 7 1 1 6 5 8 5 4 1 4 8 2 5 3 2 5 6 4 3 6 2 3 3 11 10 11 5 10 4 8 7 6 5 2 5 6 10 11 10 5 5 8 10
11 10 9 5 3 4 4 1 3 6 6 5 6 4 1 1 2 2 8 2 2 1 1 1 1 3 2 2 2 1 1 0 0 1 1 1 1 2 1 1 3 3 2 2 6 3 1 1 1 4 2 3 4 3 2 1 2 2 1 2 5 4 6 3 4 3 2 8 10 7 11 10 8 4 4 6 5 3 3 7 10 10 9 8 7 8 9 11
9 10 8 3 2 4 4 2 4 6 6 6 4 1 1 2 1 8 3 1 1 1 2 2 0 2 1 2 2 1 3 0 1 1 4 3 3 5 5 6 4 1 4 2 5 3 3 9 3 4 3 9 2 0 3 3 1 3 3 2 1 6 6 3 3 1 5 9 3 2 5 2 15 14 1 8 11 13 4 2 5 6 7 5 6 9 11 11
10 8 6 4 4 2 1 3 7 6 6 2 1 2 1 2 9 3 1 0 3 1 2 3 1 1 2 2 2 1 1 3 1 1 4 0 2 5 5 5 4 4 6 1 2 2 7 1 1 5 2 4 8 7 2 1 5 7 6 4 5 2 2 4 5 2 6 7 4 3 1 6 8 11 8 15 18 9 4 2 4 6 5 3 8 11 12 15
10 7 1 2 5 4 4 7 7 9 6 1 1 2 3 7 8 2 4 5 4 3 3 1 1 2 1 5 2 4 1 3 5 3 3 2 1 2 3 4 4 1 1 0 2 3 5 7 6 5 4 5 10 11 12 7 9 11 3 11 9 7 3 6 4 10 10 6 1 3 3 7 1 5 1 5 5 4 3 5 5 5 9 7 5 10 16 16
12 6 3 2 3 3 7 7 10 8 5 2 2 3 7 14 1 3 2 3 3 1 0 2 1 1 3 1 2 3 3 1 1 3 1 4 5 3 4 4 4 3 1 1 3 3 9 9 6 6 0 7 11 5 6 6 4 2 3 3 5 6 6 10 7 7 8 6 2 2 7 4 9 6 12 10 10 4 3 6 12 10 9 13 18 18 16 15
5 2 2 2 4 4 7 6 8 7 7 4 3 6 15 6 2 2 4 2 1 1 1 1 3 1 3 3 2 1 4 2 1 1 1 3 2 3 2 2 6 13 7 8 4 3 1 5 2 4 4 7 5 2 3 4 6 3 6 5 9 2 5 4 3 3 1 0 12 3 7 9 6 12 18 17 6 3 5 12 15 15 15 18 16 15 16 15
1 3 2 3 3 5 7 8 8 7 5 6 6 13 9 3 4 2 3 1 0 0 2 1 4 4 1 2 1 2 1 2 3 2 4 1 5 6 3 5 4 5 11 9 6 4 9 8 0 5 4 6 2 1 1 3 4 6 2 8 1 2 3 2 5 1 4 10 8 7 14 14 6 10 3 7 12 12 16 14 15 17 18 17 14 13 14 14
1 1 2 3 4 7 9 9 8 5 4 6 13 16 3 4 1 5 1 1 0 1 2 1 5 1 4 1 4 1 1 3 2 3 3 3 4 4 3 1 3 8 10 2 1 4 2 7 5 7 5 1 2 1 5 1 1 5 6 2 3 4 2 2 4 4 7 10 7 7 12 12 8 14 12 15 8 9 12 13 17 17 15 13 12 12 11 11
1 1 2 3 1 9 8 10 8 9 5 6 10 11 5 8 2 2 4 4 1 3 2 4 5 2 1 1 1 0 1 3 0 1 1 3 4 1 1 4 1 2 1 5 3 2 4 4 5 2 1 0 1 3 6 3 2 1 1 3 1 1 4 3 5 3 1 12 7 4 11 6 7 6 9 3 9 6 9 13 11 11 10 8 7 7 8 8
3 2 5 0 2 7 10 10 6 7 5 13 12 10 2 1 2 1 1 2 1 3 4 1 3 5 2 7 2 6 2 3 2 5 4 3 4 2 1 0 2 1 3 1 3 0 3 2 7 1 2 1 2 5 10 8 5 1 1 5 2 1 3 1 2 3 6 7 9 8 10 5 6 4 6 9 6 9 9 9 8 8 8 7 8 8 10 12
1 2 2 1 3 8 10 7 6 10 9 4 6 7 4 5 1 1 2 3 1 3 1 2 3 4 1 2 5 1 2 3 4 6 4 4 4 7 2 3 0 0 1 5 1 1 1 1 9 3 4 5 10 3 6 7 8 7 10 9 11 7 5 8 12 4 5 7 7 9 15 5 3 7 10 9 7 9 8 10 9 9 9 9 9 9 9 10
3 2 2 2 5 10 9 9 5 2 2 8 9 3 5 2 4 6 1 0 2 2 0 1 2 2 1 6 6 2 2 3 5 4 2 9 3 7 3 4 1 2 0 4 3 4 4 3 4 10 10 13 11 10 2 3 1 3 7 6 8 4 3 5 12 9 6 6 5 11 12 9 6 9 9 9 9 10 9 9 10 6 6 7 8 8 7 7
2 3 1 2 4 8 7 7 4 3 6 3 2 3 1 3 3 2 0 1 1 3 0 2 4 4 4 6 4 6 6 6 5 5 3 3 5 8 5 8 4 5 1 3 2 1 4 1 1 11 5 4 7 6 5 2 3 2 3 1 3 6 10 12 12 6 8 9 13 10 13 4 5 6 9 10 9 10 7 9 7 7 6 8 8 10 11 12
1 0 1 1 3 1 8 10 9 9 6 4 4 6 1 2 1 2 2 1 3 0 3 2 2 5 5 3 1 5 3 6 4 11 6 4 5 3 7 5 4 0 0 4 3 4 2 4 5 8 5 5 4 3 4 2 2 1 2 3 5 4 3 6 3 1 4 6 9 9 13 4 1 7 8 8 9 9 9 8 7 7 6 5 5 4 6 6
1 2 1 2 1 2 7 3 5 4 7 8 6 9 8 4 5 8 5 5 2 3 1 3 4 0 2 1 1 1 2 10 6 2 3 1 3 1 7 7 6 2 0 2 1 1 3 2 4 10 10 10 9 11 7 5 4 1 2 2 3 3 7 5 6 2 7 3 11 6 4 3 4 5 5 8 8 7 8 7 5 5 3 4 2 3 3 5
2 2 1 3 3 2 3 1 1 4 4 3 5 7 7 9 4 1 7 3 6 3 4 3 1 2 2 2 2 3 4 2 6 3 2 1 2 2 1 4 5 1 1 3 2 1 1 2 2 7 10 12 11 7 1 0 2 5 4 5 8 5 3 5 7 10 14 15 13 11 13 14 15 11 6 8 8 7 6 5 4 3 3 2 2 2 2 4
1 3 3 2 3 3 3 1 2 4 4 4 5 2 7 9 5 3 7 1 2 5 2 7 3 3 3 6 7 9 7 9 5 6 8 10 2 2 2 4 2 2 4 2 0 3 1 5 8 12 13 13 13 13 12 8 13 11 13 13 10 8 10 11 10 14 8 9 15 8 12 11 7 4 1 2 5 4 4 4 5 3 4 4 4 5 5 6
1 2 3 2 4 5 4 8 6 5 2 2 4 2 4 3 1 3 2 1 0 1 3 4 2 9 8 8 2 3 1 5 2 6 3 2 4 3 5 2 1 3 2 0 0 3 2 8 7 10 13 10 13 14 12 11 9 10 12 13 15 13 9 13 16 14 8 11 15 12 13 15 12 4 2 3 3 3 1 4 3 3 2 4 5 6 7 8
2 1 0 2 2 2 1 1 3 4 9 7 2 2 8 8 10 5 1 2 1 1 3 6 4 5 6 6 5 6 5 6 6 4 4 4 6 3 3 2 1 3 2 1 0 2 1 4 8 10 12 9 10 10 6 9 8 9 10 10 10 11 15 15 14 11 12 14 12 13 14 19 8 4 3 3 2 1 2 2 3 3 4 2 4 6 6 6
1 0 1 3 2 2 2 4 1 1 6 8 6 9 5 5 13 7 1 3 5 6 1 8 10 5 3 5 6 8 9 9 9 14 2 3 3 4 3 4 1 1 2 0 1 4 3 5 4 2 3 6 6 7 5 7 8 11 8 8 10 11 13 11 12 15 15 13 15 19 18 16 3 2 3 3 4 1 3 4 3 4 3 2 4 5 5 7
1 1 0 1 1 2 3 1 1 1 2 3 9 7 6 7 11 1 3 1 4 5 1 1 3 4 1 1 4 6 4 3 4 1 2 2 5 3 1 2 5 1 2 0 0 4 2 5 4 2 8 13 10 11 10 5 5 8 10 12 16 17 16 13 14 10 11 16 17 12 8 7 3 4 3 3 3 2 3 4 4 3 2 2 5 6 6 8
1 1 1 0 0 1 4 1 0 2 7 5 4 3 3 2 0 1 2 3 5 6 3 3 3 3 2 2 3 3 2 2 1 4 5 4 2 5 4 3 3 1 0 2 1 1 1 0 2 2 10 11 12 7 2 1 8 12 14 18 20 20 18 17 16 14 16 10 12 13 10 2 5 4 2 3 6 5 3 5 5 4 3 3 5 6 5 7
Wind_Direction
20 18 17 15 15 11 6 7 4 359 355 355 354 352 348 348 346 344 340 337 336 333 332 332 331 328 330 332 335 335 342 44 44 77 203 240 204 225 211 116 136 143 145 102 102 112 54 31 96 344 43 57 314 84 281 40 86 67 138 126 229 207 158 204 188 193 211 233 276 314 179 360 307 321 277 69 329 263 281 252 272 291 252 232 242 137 331 157
14 11 10 7 7 8 3 359 359 356 353 351 351 348 347 346 346 342 340 337 334 331 330 330 328 326 327 328 331 336 9 236 220 201 225 218 266 168 156 143 137 145 121 101 137 130 123 42 36 53 88 92 323 194 6 219 108 118 118 114 234 186 238 165 201 207 154 257 222 260 235 204 261 356 291 336 281 317 303 264 209 249 262 263 263 231 153 145
7 5 5 3 1 2 2 358 354 352 351 347 348 346 345 344 342 341 339 337 334 331 330 327 326 324 324 325 325 350 10 337 339 257 257 45 222 154 149 148 150 154 136 153 184 135 131 191 174 98 11 111 4 191 24 249 126 223 130 231 243 214 229 221 198 224 204 269 289 310 300 163 253 128 310 239 289 296 259 278 280 223 257 251 251 229 209 184
358 0 359 1 359 356 356 355 352 348 347 344 343 345 342 341 339 339 337 335 332 330 327 326 323 322 321 321 325 342 91 328 294 233 290 283 163 155 156 150 135 113 88 62 135 109 105 91 77 96 83 92 306 25 167 245 123 265 108 197 230 214 208 245 210 234 239 163 265 272 299 312 269 219 133 199 329 276 254 238 241 258 246 262 243 236 192 210
349 351 354 354 357 354 352 352 349 347 344 341 341 339 339 338 336 335 335 332 333 328 326 324 323 320 319 321 328 172 358 43 272 245 257 224 170 158 153 145 130 97 103 141 88 69 85 118 104 43 89 216 353 12 244 235 187 111 209 222 201 124 240 239 219 221 205 177 206 286 319 272 73 128 200 162 227 266 268 241 205 238 251 243 264 236 185 204
346 343 348 347 345 347 348 348 347 344 342 341 338 336 336 335 335 332 332 331 328 328 325 326 325 324 323 325 18 117 72 334 216 253 164 141 153 144 140 127 123 114 114 73 106 122 103 43 96 140 17 86 206 180 268 165 131 245 262 253 235 213 244 246 226 220 158 170 174 288 251 344 54 290 190 182 218 254 258 263 243 247 245 244 249 140 200 212
344 341 344 344 341 341 344 346 344 344 342 339 337 335 332 333 330 331 327 330 324 324 327 326 326 329 327 16 214 96 144 251 306 242 157 141 141 133 128 122 121 115 103 100 115 120 95 110 115 170 101 26 281 202 251 191 2 244 263 259 282 210 232 224 258 125 191 173 242 214 329 292 297 299 178 192 234 241 264 271 270 269 253 247 259 221 227 217
342 336 340 341 342 343 344 345 344 342 341 337 336 334 333 331 329 325 326 323 323 318 325 326 330 326 352 33 287 7 63 244 244 248 159 127 116 121 112 88 111 114 123 152 144 129 132 140 173 141 145 179 222 163 210 139 126 210 269 210 267 203 244 267 252 260 260 248 254 315 289 268 235 241 305 261 254 247 262 275 271 270 275 259 244 257 246 241
331 339 338 339 343 344 343 343 341 340 338 337 335 333 333 327 326 324 321 320 318 317 316 327 326 336 324 83 122 312 254 238 247 187 132 120 125 119 132 129 139 133 137 112 144 160 134 234 142 184 241 200 181 181 221 175 285 206 234 236 280 273 279 277 285 230 243 263 164 217 258 263 269 236 257 254 264 270 270 275 270 280 274 262 249 249 252 245
333 336 338 336 342 344 341 339 339 338 336 334 333 331 326 326 321 320 315 312 310 311 310 321 332 326 29 85 46 265 260 187 24 79 97 119 116 113 46 131 130 124 119 188 97 130 183 202 177 198 126 146 143 207 120 157 234 168 222 238 261 272 314 297 237 250 229 236 167 199 253 265 51 142 279 257 232 256 272 268 280 278 264 264 259 255 249 247
345 337 334 335 345 341 339 338 338 337 335 332 330 327 325 321 319 313 312 305 300 298 301 303 354 19 221 121 197 255 232 68 24 91 111 118 114 132 178 138 151 126 109 156 189 186 173 146 152 97 94 223 122 254 160 218 138 91 210 308 283 291 257 240 270 263 260 277 181 203 246 277 300 142 244 272 147 60 280 283 284 263 264 270 270 268 265 244
344 332 332 337 345 340 337 337 337 334 332 331 327 325 323 320 317 313 306 300 292 284 282 293 286 166 77 119 215 230 338 135 113 103 101 108 88 143 184 177 169 156 146 168 234 246 163 158 134 140 211 124 247 110 253 220 32 218 42 304 287 334 311 175 242 256 162 254 163 173 255 295 231 224 251 253 289 271 260 275 284 278 268 271 280 281 272 255
330 323 327 353 343 339 338 336 335 332 330 327 326 325 323 321 317 313 306 299 285 283 270 93 98 148 67 304 237 232 31 137 116 104 67 80 110 73 79 67 114 139 159 132 202 220 185 141 134 163 213 139 177 224 134 89 97 26 64 189 317 334 298 282 218 48 150 248 155 146 278 235 255 240 261 273 263 294 293 271 267 278 280 275 275 277 280 274
303 319 339 347 338 339 336 335 333 329 327 326 324 325 323 321 320 317 312 293 270 246 258 189 101 109 113 244 266 251 154 120 102 92 116 185 80 360 39 32 76 62 338 131 99 105 141 111 127 152 85 174 253 275 56 343 13 255 241 103 256 333 265 294 130 149 326 202 169 116 251 262 274 272 263 282 72 241 272 273 283 284 285 280 268 272 274 275
320 328 333 320 338 335 332 332 331 328 324 324 323 323 323 322 331 332 328 314 237 200 139 93 59 93 94 268 229 284 149 139 126 225 192 131 117 70 16 44 52 37 76 91 121 66 117 98 91 97 250 324 34 322 307 13 357 342 354 272 323 198 284 294 256 180 246 329 175 130 255 253 259 273 279 292 42 32 266 271 271 277 278 281 279 270 271 270
291 331 328 327 331 330 327 328 329 327 322 319 320 320 317 337 357 21 52 74 146 150 134 76 77 106 32 295 243 126 76 220 278 81 121 121 156 155 157 113 110 35 40 21 61 109 44 95 94 194 265 347 164 116 26 11 324 346 204 258 255 207 254 330 287 213 243 133 267 178 246 292 280 253 270 282 320 264 274 281 278 269 273 277 277 274 271 280
283 321 318 306 325 326 331 327 329 327 322 318 320 318 318 213 48 48 57 56 74 70 114 183 134 160 195 238 129 297 248 225 121 28 36 11 122 141 110 79 67 71 65 62 27 58 348 75 294 15 34 180 130 92 351 355 277 263 186 232 200 239 304 279 303 284 110 169 218 232 247 240 261 280 290 295 284 293 288 278 275 272 270 271 278 279 275 275
271 305 303 330 329 326 328 328 330 329 325 321 323 318 305 209 37 78 62 63 32 114 316 209 126 40 277 10 260 236 352 252 59 168 51 309 122 115 99 108 56 93 76 50 354 110 306 104 37 195 339 29 124 79 153 251 239 253 249 284 288 252 228 255 312 267 335 230 206 60 243 254 267 278 277 275 282 255 267 275 275 276 274 279 277 278 277 270
261 266 293 326 329 330 328 328 329 330 328 321 325 319 43 131 32 101 72 2 83 19 45 215 137 153 206 220 316 28 91 104 124 66 156 110 42 96 71 79 99 120 75 91 256 117 359 66 33 42 248 191 203 188 202 235 246 270 244 244 264 280 249 240 235 273 248 281 291 258 264 269 271 273 276 278 269 263 251 266 282 280 281 275 269 267 272 271
264 268 273 328 330 324 325 328 328 330 331 332 350 4 18 16 2 349 342 5 214 193 185 222 255 297 320 292 210 320 277 64 137 354 142 284 121 91 35 85 39 62 112 185 172 165 111 136 165 209 233 222 215 208 220 262 67 50 225 241 262 273 283 268 266 259 273 304 252 263 272 279 277 273 278 275 280 275 266 264 283 278 276 272 267 262 263 279
261 259 266 292 312 314 320 324 329 329 334 337 329 53 57 181 20 313 313 258 250 277 266 251 204 217 242 71 294 92 209 296 69 102 203 121 131 117 208 73 60 161 277 165 141 265 74 179 227 227 233 223 234 261 311 302 284 263 272 278 277 239 277 256 290 278 264 213 302 262 280 285 286 281 271 268 269 273 279 281 255 269 270 266 262 284 301 278
266 265 263 268 279 310 318 323 329 331 337 72 50 79 191 210 215 237 100 309 315 246 235 247 2 264 267 232 214 149 86 349 337 46 334 145 9 155 280 117 149 203 144 110 41 94 165 198 234 233 239 71 72 102 190 216 254 276 245 285 315 264 258 283 254 301 314 207 263 266 278 282 283 275 267 261 264 268 271 258 254 253 262 268 311 315 289 306
270 266 263 257 255 298 315 315 325 347 13 31 42 72 171 241 59 313 69 231 265 266 231 244 234 232 262 3 283 121 227 221 252 185 206 130 52 210 145 135 184 142 113 188 191 125 271 273 246 246 114 214 284 224 317 304 243 248 287 295 262 266 333 309 278 356 327 123 294 314 302 287 258 265 273 270 241 253 259 259 249 239 264 298 290 290 295 299
260 254 249 249 239 249 289 313 319 32 29 119 114 159 258 103 109 74 67 245 279 305 232 230 202 189 233 211 235 162 187 254 123 267 319 142 156 189 121 167 142 135 221 192 207 189 218 226 279 159 185 174 224 243 241 247 262 190 214 235 261 268 245 221 272 344 315 301 131 303 284 286 323 315 359 311 307 244 262 259 261 10 240 261 280 287 278 287
249 248 248 246 228 223 262 310 33 52 138 66 287 235 215 153 140 164 35 310 352 277 299 344 122 244 217 35 2 153 256 100 217 209 265 128 140 105 224 183 119 229 213 172 181 266 287 263 120 70 84 144 183 265 240 208 273 281 224 216 238 252 274 270 296 12 6 315 345 26 328 161 235 131 227 272 326 287 254 253 327 316 294 264 272 273 293 273
254 252 254 237 214 217 254 337 341 132 87 194 209 200 140 112 130 176 94 36 292 267 345 234 124 335 71 32 10 200 103 239 353 241 360 247 231 154 94 167 139 233 183 134 189 198 220 353 154 195 134 151 179 221 244 131 220 60 269 200 237 248 253 278 303 21 331 236 328 48 85 289 168 222 234 262 266 259 277 24 311 309 305 295 273 298 316 316
254 252 246 223 192 202 303 258 165 144 353 335 187 162 171 120 200 142 353 306 324 209 151 282 68 262 80 306 78 105 126 272 321 30 30 335 132 302 158 233 27 39 160 165 38 263 150 15 71 83 135 155 181 257 234 162 140 234 258 151 104 175 235 246 216 189 245 243 289 254 164 240 300 183 221 238 241 263 310 307 303 293 301 299 304 324 318 311
313 254 236 215 182 185 212 125 72 357 241 153 121 104 140 159 97 108 92 325 305 52 80 276 194 293 88 332 52 121 209 328 62 308 171 290 28 355 124 218 182 181 188 119 225 260 137 125 129 116 123 135 207 212 177 157 154 212 251 151 130 193 195 160 144 193 234 4 303 322 208 315 253 227 306 292 257 309 286 280 296 315 320 322 338 329 334 322
17 355 233 197 185 166 111 151 147 207 178 140 130 125 95 112 121 95 122 227 233 85 312 68 285 56 3 327 45 49 289 16 127 267 313 321 27 142 234 237 169 176 248 176 224 257 287 167 202 160 143 209 220 231 165 162 188 242 132 88 74 67 63 106 120 129 317 33 274 189 193 211 283 182 194 10 243 244 254 281 310 310 313 324 339 327 350 352
12 7 348 169 130 115 41 58 211 170 133 135 131 119 97 19 274 36 235 234 37 287 112 225 102 254 48 104 293 6 181 331 112 322 24 152 327 38 5 134 122 114 225 355 260 237 210 330 158 130 196 216 151 162 177 185 137 113 92 57 13 35 21 13 56 81 29 283 260 183 197 167 280 308 189 148 201 193 228 285 310 323 334 332 0 319 348 350
3 354 344 187 169 185 136 260 208 148 141 125 116 125 132 45 142 153 237 223 7 225 34 22 216 11 138 139 203 332 32 9 25 69 76 6 4 48 359 285 63 47 36 355 279 295 202 47 177 248 76 95 106 95 47 28 121 118 59 110 26 344 9 31 343 26 149 269 268 184 185 180 222 279 288 239 288 212 260 299 294 310 308 315 330 346 355 358
355 343 338 277 254 152 162 237 162 141 139 137 135 99 77 301 17 214 224 355 3 262 149 233 332 125 106 354 106 191 173 62 255 136 163 181 155 163 206 182 168 8 323 213 261 19 261 215 240 307 230 162 159 110 320 45 66 110 99 61 64 274 24 320 23 294 191 227 274 11 123 356 244 243 222 285 285 287 247 178 251 256 285 314 331 12 354 8
340 332 303 227 250 198 300 101 123 125 108 104 66 63 99 152 252 147 256 168 261 111 261 76 183 166 173 91 257 224 261 175 207 198 124 204 153 254 250 197 189 185 246 243 250 350 278 287 99 239 1 214 139 169 237 296 186 131 159 150 103 260 216 253 268 236 306 285 266 143 342 262 279 292 230 246 259 276 308 245 224 212 228 334 3 11 19 19
327 321 265 212 201 205 133 139 134 134 107 74 76 46 85 238 238 116 187 225 236 8 35 84 23 33 29 184 244 155 225 250 146 202 153 183 98 254 288 250 165 230 133 196 251 209 312 310 262 150 242 182 177 197 199 184 158 195 145 163 187 166 161 261 193 254 258 247 324 257 88 230 145 224 243 228 257 265 248 260 258 5 19 1 14 35 32 25
315 300 207 214 214 168 143 148 149 149 120 94 66 173 230 240 336 267 284 283 295 337 113 358 110 79 292 358 296 280 199 325 118 104 207 143 234 194 206 216 234 123 160 195 244 77 210 241 256 209 317 148 179 222 100 102 70 175 162 71 74 231 155 238 216 233 261 274 325 225 211 208 229 302 301 281 279 321 4 341 42 52 48 38 34 25 22 19
326 312 217 198 177 181 152 153 153 152 136 130 176 218 228 198 226 176 236 165 325 328 302 14 85 13 268 303 313 329 323 184 306 101 284 196 242 223 232 216 174 185 157 193 181 244 104 279 270 345 89 190 211 105 240 135 228 211 100 186 217 160 158 275 340 246 66 14 247 185 276 263 300 289 285 288 338 344 11 49 50 40 40 41 36 26 17 13
25 331 231 173 203 169 151 149 153 146 141 176 208 241 227 271 195 170 246 187 258 142 28 276 275 167 270 263 269 357 282 64 270 135 273 190 309 205 241 268 174 198 205 178 272 207 250 265 176 139 252 250 184 148 293 7 146 101 159 232 47 127 112 174 237 325 217 239 249 193 249 269 295 282 279 344 321 15 44 46 50 41 39 40 25 23 18 10
334 291 293 257 203 149 151 150 136 120 113 199 222 236 90 221 213 213 131 122 73 43 52 122 274 103 277 315 302 190 285 150 282 115 252 192 255 145 133 245 222 188 224 337 176 295 89 282 255 225 192 304 31 144 311 162 13 162 189 260 151 244 283 273 95 259 254 246 260 222 237 252 240 266 290 294 346 25 42 45 43 38 34 34 27 17 15 10
187 117 277 232 327 155 144 149 146 134 133 213 227 252 228 238 143 175 201 140 140 119 218 231 220 302 167 289 219 181 186 189 242 222 5 259 199 152 197 199 323 173 15 101 334 279 23 269 324 5 79 208 45 100 241 188 340 70 4 327 206 114 204 209 191 189 225 260 252 252 186 248 197 237 240 4 65 44 52 49 56 56 49 35 25 16 8 12
158 145 253 286 237 142 146 142 135 152 195 213 222 229 122 50 240 273 262 187 248 167 242 213 212 248 256 241 163 267 264 183 186 237 183 271 263 247 216 42 197 31 18 291 208 170 279 197 246 162 331 136 257 191 224 209 196 231 132 250 306 195 232 135 340 198 222 250 246 263 259 229 239 234 87 107 85 67 67 73 55 46 46 39 29 19 13 12
274 127 258 110 152 144 135 136 167 196 208 256 265 255 283 264 63 253 179 213 177 348 205 197 168 223 179 332 283 193 249 210 210 221 191 279 206 294 260 188 170 54 100 65 113 260 354 241 252 252 304 237 256 211 212 214 210 197 186 210 205 210 264 249 252 181 223 224 245 257 260 256 262 55 112 105 111 81 78 81 70 44 30 26 21 13 15 12
161 122 261 127 180 153 146 174 207 157 198 208 221 194 244 345 288 264 157 312 154 221 65 206 241 244 214 253 249 246 239 238 223 234 242 234 238 215 252 168 86 160 287 258 202 234 178 173 215 242 225 238 250 259 212 202 156 193 174 235 204 205 150 219 257 236 260 223 242 246 275 242 79 97 102 113 101 98 87 87 79 67 42 29 21 19 16 20
206 204 316 259 224 170 154 222 208 196 213 244 35 291 219 277 225 199 334 93 15 186 222 208 210 231 240 238 210 239 202 261 176 230 204 239 237 224 302 1 72 20 57 297 332 282 87 86 278 262 265 292 286 276 269 136 158 330 280 147 124 204 204 230 243 252 253 263 255 255 248 257 99 112 105 102 102 97 100 87 101 73 54 30 21 13 7 2
33 29 342 281 212 331 181 204 209 213 232 259 230 255 194 205 275 293 214 217 198 164 187 199 331 199 254 237 216 249 193 273 228 244 257 228 258 349 21 26 319 205 207 243 201 261 317 256 243 290 289 289 297 341 313 2 68 193 185 230 208 253 283 266 316 111 251 184 240 249 249 241 243 124 109 110 120 103 90 84 81 81 62 53 27 9 7 355
76 329 282 312 293 229 219 215 211 206 222 230 234 241 246 249 218 235 247 249 202 210 33 271 225 100 256 65 288 303 229 224 277 255 191 238 242 48 0 52 42 113 338 318 129 11 260 221 246 261 263 272 269 261 262 263 239 310 326 307 309 239 257 287 278 9 273 200 213 232 270 235 189 184 68 63 50 81 94 96 103 98 115 77 50 6 358 352
194 146 289 2 332 318 284 93 79 207 214 234 256 253 257 261 272 244 180 254 193 207 216 216 235 159 186 270 252 253 267 178 211 266 338 279 283 340 127 6 77 138 261 121 37 69 198 297 223 247 250 259 264 282 202 310 268 265 258 264 271 259 217 236 267 258 258 269 264 251 266 275 272 286 5 3 28 25 22 36 64 58 42 48 11 352 348 352
298 117 167 241 352 294 261 349 225 192 219 176 232 191 236 227 253 300 181 233 264 188 226 206 188 195 235 219 236 259 239 263 225 250 243 253 256 244 286 140 125 45 197 118 25 88 163 236 211 250 251 259 268 273 281 288 282 280 279 274 268 250 249 250 231 252 270 293 257 254 256 261 261 256 12 59 25 29 18 14 350 15 4 359 334 337 346 356
87 258 99 225 138 229 183 254 229 240 238 142 234 318 267 256 205 233 352 207 25 118 175 330 264 211 212 214 215 244 172 251 169 245 264 255 250 321 303 344 87 309 96 91 314 172 181 253 262 263 265 265 270 273 275 276 262 268 265 271 272 272 249 241 251 254 255 248 269 278 287 282 285 230 140 90 101 7 54 329 274 283 276 338 337 348 354 354
125 312 137 331 146 288 139 35 34 239 247 236 266 228 253 245 253 229 179 322 38 300 197 245 231 227 219 240 218 240 240 273 261 243 231 254 227 252 267 290 227 33 57 33 317 189 168 249 244 250 267 266 271 271 271 264 273 266 262 258 261 260 261 258 264 264 251 257 270 281 274 269 287 183 142 162 157 134 267 289 281 290 287 297 325 322 340 332
321 56 290 26 78 37 3 25 33 67 220 228 238 229 249 245 254 265 261 212 267 265 122 243 257 287 262 224 214 232 234 242 262 271 254 160 274 186 235 214 212 347 68 257 291 300 209 270 63 107 270 256 247 258 263 269 274 277 278 281 272 269 268 269 274 267 272 269 259 257 262 270 128 171 183 154 182 243 227 286 259 265 252 260 284 293 311 326
237 86 34 82 35 193 81 241 131 171 245 211 223 240 245 231 254 226 240 29 220 251 96 228 17 329 16 255 241 246 58 74 52 141 346 37 298 334 104 269 104 190 337 38 320 308 344 265 331 4 289 272 266 268 272 294 297 280 278 272 264 261 267 262 258 262 266 267 267 271 262 248 148 136 272 162 196 240 228 255 283 272 261 245 272 295 319 326
52 302 75 95 278 172 133 108 95 119 234 224 205 227 218 264 25 87 275 109 40 96 108 87 342 61 286 339 322 78 139 84 284 294 304 295 227 287 314 288 328 142 225 134 240 208 227 147 322 298 266 256 261 273 301 40 299 276 253 252 258 262 257 261 261 261 253 273 271 262 273 85 176 174 100 248 181 255 247 272 276 300 228 233 268 272 296 298